Year,Month,Day,Hour,Minute,Value (Times are PST for temperature in C)
2020,05,09,00,00,15.30
2020,05,09,00,01,15.30
2020,05,09,00,02,15.20
2020,05,09,00,03,15.20
2020,05,09,00,04,15.10
2020,05,09,00,05,15.10
2020,05,09,00,06,15.00
2020,05,09,00,07,15.00
2020,05,09,00,08,15.00
2020,05,09,00,09,14.90
2020,05,09,00,10,14.90
2020,05,09,00,11,14.90
2020,05,09,00,12,14.80
2020,05,09,00,13,14.80
2020,05,09,00,14,14.80
2020,05,09,00,15,14.80
2020,05,09,00,16,14.70
2020,05,09,00,17,14.70
2020,05,09,00,18,14.70
2020,05,09,00,19,14.60
2020,05,09,00,20,14.60
2020,05,09,00,21,14.60
2020,05,09,00,22,14.50
2020,05,09,00,23,14.40
2020,05,09,00,24,14.30
2020,05,09,00,25,14.30
2020,05,09,00,26,14.20
2020,05,09,00,27,14.20
2020,05,09,00,28,14.10
2020,05,09,00,29,14.10
2020,05,09,00,30,14.10
2020,05,09,00,31,14.20
2020,05,09,00,32,14.20
2020,05,09,00,33,14.20
2020,05,09,00,34,14.20
2020,05,09,00,35,14.30
2020,05,09,00,36,14.30
2020,05,09,00,37,14.30
2020,05,09,00,38,14.40
2020,05,09,00,39,14.60
2020,05,09,00,40,14.80
2020,05,09,00,41,15.00
2020,05,09,00,42,15.20
2020,05,09,00,43,15.30
2020,05,09,00,44,15.40
2020,05,09,00,45,15.50
2020,05,09,00,46,15.60
2020,05,09,00,47,15.60
2020,05,09,00,48,15.70
2020,05,09,00,49,15.80
2020,05,09,00,50,15.80
2020,05,09,00,51,15.80
2020,05,09,00,52,15.80
2020,05,09,00,53,15.90
2020,05,09,00,54,15.90
2020,05,09,00,55,15.90
2020,05,09,00,56,15.90
2020,05,09,00,57,15.90
2020,05,09,00,58,15.90
2020,05,09,00,59,15.90
2020,05,09,01,00,15.90
2020,05,09,01,01,15.80
2020,05,09,01,02,15.80
2020,05,09,01,03,15.80
2020,05,09,01,04,15.80
2020,05,09,01,05,15.80
2020,05,09,01,06,15.80
2020,05,09,01,07,15.70
2020,05,09,01,08,15.70
2020,05,09,01,09,15.70
2020,05,09,01,10,15.60
2020,05,09,01,11,15.60
2020,05,09,01,12,15.50
2020,05,09,01,13,15.50
2020,05,09,01,14,15.40
2020,05,09,01,15,15.30
2020,05,09,01,16,15.20
2020,05,09,01,17,15.10
2020,05,09,01,18,15.00
2020,05,09,01,19,15.00
2020,05,09,01,20,14.90
2020,05,09,01,21,14.90
2020,05,09,01,22,14.80
2020,05,09,01,23,14.80
2020,05,09,01,24,14.80
2020,05,09,01,25,14.80
2020,05,09,01,26,14.70
2020,05,09,01,27,14.70
2020,05,09,01,28,14.60
2020,05,09,01,29,14.60
2020,05,09,01,30,14.50
2020,05,09,01,31,14.50
2020,05,09,01,32,14.50
2020,05,09,01,33,14.40
2020,05,09,01,34,14.40
2020,05,09,01,35,14.40
2020,05,09,01,36,14.40
2020,05,09,01,37,14.40
2020,05,09,01,38,14.40
2020,05,09,01,39,14.40
2020,05,09,01,40,14.40
2020,05,09,01,41,14.40
2020,05,09,01,42,14.40
2020,05,09,01,43,14.40
2020,05,09,01,44,14.40
2020,05,09,01,45,14.40
2020,05,09,01,46,14.40
2020,05,09,01,47,14.40
2020,05,09,01,48,14.40
2020,05,09,01,49,14.30
2020,05,09,01,50,14.30
2020,05,09,01,51,14.30
2020,05,09,01,52,14.30
2020,05,09,01,53,14.20
2020,05,09,01,54,14.20
2020,05,09,01,55,14.20
2020,05,09,01,56,14.10
2020,05,09,01,57,14.10
2020,05,09,01,58,14.10
2020,05,09,01,59,14.00
2020,05,09,02,00,14.00
2020,05,09,02,01,13.90
2020,05,09,02,02,13.90
2020,05,09,02,03,13.90
2020,05,09,02,04,13.80
2020,05,09,02,05,13.80
2020,05,09,02,06,13.80
2020,05,09,02,07,13.70
2020,05,09,02,08,13.70
2020,05,09,02,09,13.70
2020,05,09,02,10,13.60
2020,05,09,02,11,13.70
2020,05,09,02,12,13.80
2020,05,09,02,13,13.90
2020,05,09,02,14,14.00
2020,05,09,02,15,14.20
2020,05,09,02,16,14.30
2020,05,09,02,17,14.40
2020,05,09,02,18,14.60
2020,05,09,02,19,14.70
2020,05,09,02,20,14.80
2020,05,09,02,21,14.90
2020,05,09,02,22,15.00
2020,05,09,02,23,15.00
2020,05,09,02,24,15.10
2020,05,09,02,25,15.10
2020,05,09,02,26,15.10
2020,05,09,02,27,15.10
2020,05,09,02,28,15.10
2020,05,09,02,29,15.20
2020,05,09,02,30,15.20
2020,05,09,02,31,15.20
2020,05,09,02,32,15.20
2020,05,09,02,33,15.20
2020,05,09,02,34,15.20
2020,05,09,02,35,15.20
2020,05,09,02,36,15.20
2020,05,09,02,37,15.20
2020,05,09,02,38,15.20
2020,05,09,02,39,15.20
2020,05,09,02,40,15.30
2020,05,09,02,41,15.30
2020,05,09,02,42,15.30
2020,05,09,02,43,15.30
2020,05,09,02,44,15.40
2020,05,09,02,45,15.40
2020,05,09,02,46,15.40
2020,05,09,02,47,15.50
2020,05,09,02,48,15.50
2020,05,09,02,49,15.50
2020,05,09,02,50,15.60
2020,05,09,02,51,15.50
2020,05,09,02,52,15.50
2020,05,09,02,53,15.50
2020,05,09,02,54,15.60
2020,05,09,02,55,15.60
2020,05,09,02,56,15.60
2020,05,09,02,57,15.60
2020,05,09,02,58,15.60
2020,05,09,02,59,15.60
2020,05,09,03,00,15.60
2020,05,09,03,01,15.60
2020,05,09,03,02,15.60
2020,05,09,03,03,15.70
2020,05,09,03,04,15.70
2020,05,09,03,05,15.70
2020,05,09,03,06,15.70
2020,05,09,03,07,15.70
2020,05,09,03,08,15.70
2020,05,09,03,09,15.70
2020,05,09,03,10,15.70
2020,05,09,03,11,15.70
2020,05,09,03,12,15.70
2020,05,09,03,13,15.70
2020,05,09,03,14,15.70
2020,05,09,03,15,15.70
2020,05,09,03,16,15.70
2020,05,09,03,17,15.70
2020,05,09,03,18,15.60
2020,05,09,03,19,15.60
2020,05,09,03,20,15.60
2020,05,09,03,21,15.60
2020,05,09,03,22,15.60
2020,05,09,03,23,15.60
2020,05,09,03,24,15.60
2020,05,09,03,25,15.60
2020,05,09,03,26,15.60
2020,05,09,03,27,15.50
2020,05,09,03,28,15.50
2020,05,09,03,29,15.40
2020,05,09,03,30,15.40
2020,05,09,03,31,15.40
2020,05,09,03,32,15.40
2020,05,09,03,33,15.40
2020,05,09,03,34,15.40
2020,05,09,03,35,15.30
2020,05,09,03,36,15.30
2020,05,09,03,37,15.30
2020,05,09,03,38,15.30
2020,05,09,03,39,15.30
2020,05,09,03,40,15.30
2020,05,09,03,41,15.30
2020,05,09,03,42,15.30
2020,05,09,03,43,15.30
2020,05,09,03,44,15.30
2020,05,09,03,45,15.30
2020,05,09,03,46,15.30
2020,05,09,03,47,15.30
2020,05,09,03,48,15.30
2020,05,09,03,49,15.30
2020,05,09,03,50,15.20
2020,05,09,03,51,15.20
2020,05,09,03,52,15.20
2020,05,09,03,53,15.20
2020,05,09,03,54,15.20
2020,05,09,03,55,15.20
2020,05,09,03,56,15.20
2020,05,09,03,57,15.20
2020,05,09,03,58,15.20
2020,05,09,03,59,15.20
2020,05,09,04,00,15.20
2020,05,09,04,01,15.20
2020,05,09,04,02,15.20
2020,05,09,04,03,15.20
2020,05,09,04,04,15.10
2020,05,09,04,05,15.10
2020,05,09,04,06,15.10
2020,05,09,04,07,15.10
2020,05,09,04,08,15.00
2020,05,09,04,09,15.00
2020,05,09,04,10,15.00
2020,05,09,04,11,15.00
2020,05,09,04,12,14.90
2020,05,09,04,13,14.90
2020,05,09,04,14,14.90
2020,05,09,04,15,14.90
2020,05,09,04,16,15.00
2020,05,09,04,17,15.00
2020,05,09,04,18,15.00
2020,05,09,04,19,15.10
2020,05,09,04,20,15.10
2020,05,09,04,21,15.10
2020,05,09,04,22,15.10
2020,05,09,04,23,15.10
2020,05,09,04,24,15.10
2020,05,09,04,25,15.20
2020,05,09,04,26,15.20
2020,05,09,04,27,15.20
2020,05,09,04,28,15.20
2020,05,09,04,29,15.20
2020,05,09,04,30,15.20
2020,05,09,04,31,15.20
2020,05,09,04,32,15.20
2020,05,09,04,33,15.20
2020,05,09,04,34,15.20
2020,05,09,04,35,15.20
2020,05,09,04,36,15.20
2020,05,09,04,37,15.20
2020,05,09,04,38,15.20
2020,05,09,04,39,15.20
2020,05,09,04,40,15.20
2020,05,09,04,41,15.20
2020,05,09,04,42,15.10
2020,05,09,04,43,15.10
2020,05,09,04,44,15.10
2020,05,09,04,45,15.10
2020,05,09,04,46,15.10
2020,05,09,04,47,15.10
2020,05,09,04,48,15.00
2020,05,09,04,49,15.00
2020,05,09,04,50,15.00
2020,05,09,04,51,14.90
2020,05,09,04,52,14.90
2020,05,09,04,53,14.90
2020,05,09,04,54,14.90
2020,05,09,04,55,14.80
2020,05,09,04,56,14.80
2020,05,09,04,57,14.80
2020,05,09,04,58,14.80
2020,05,09,04,59,14.90
2020,05,09,05,00,14.90
2020,05,09,05,01,14.90
2020,05,09,05,02,14.90
2020,05,09,05,03,14.90
2020,05,09,05,04,14.90
2020,05,09,05,05,14.90
2020,05,09,05,06,14.90
2020,05,09,05,07,14.80
2020,05,09,05,08,14.80
2020,05,09,05,09,14.80
2020,05,09,05,10,14.80
2020,05,09,05,11,14.70
2020,05,09,05,12,14.70
2020,05,09,05,13,14.70
2020,05,09,05,14,14.70
2020,05,09,05,15,14.60
2020,05,09,05,16,14.60
2020,05,09,05,17,14.60
2020,05,09,05,18,14.50
2020,05,09,05,19,14.50
2020,05,09,05,20,14.50
2020,05,09,05,21,14.40
2020,05,09,05,22,14.40
2020,05,09,05,23,14.40
2020,05,09,05,24,14.40
2020,05,09,05,25,14.30
2020,05,09,05,26,14.30
2020,05,09,05,27,14.30
2020,05,09,05,28,14.20
2020,05,09,05,29,14.20
2020,05,09,05,30,14.20
2020,05,09,05,31,14.10
2020,05,09,05,32,14.10
2020,05,09,05,33,14.10
2020,05,09,05,34,14.10
2020,05,09,05,35,14.10
2020,05,09,05,36,14.10
2020,05,09,05,37,14.10
2020,05,09,05,38,14.10
2020,05,09,05,39,14.10
2020,05,09,05,40,14.10
2020,05,09,05,41,14.10
2020,05,09,05,42,14.00
2020,05,09,05,43,14.00
2020,05,09,05,44,14.00
2020,05,09,05,45,13.90
2020,05,09,05,46,13.90
2020,05,09,05,47,13.90
2020,05,09,05,48,13.90
2020,05,09,05,49,13.80
2020,05,09,05,50,13.80
2020,05,09,05,51,13.80
2020,05,09,05,52,13.80
2020,05,09,05,53,13.80
2020,05,09,05,54,13.70
2020,05,09,05,55,13.70
2020,05,09,05,56,13.70
2020,05,09,05,57,13.70
2020,05,09,05,58,13.70
2020,05,09,05,59,13.70
2020,05,09,06,00,13.70
2020,05,09,06,01,13.70
2020,05,09,06,02,13.70
2020,05,09,06,03,13.70
2020,05,09,06,04,13.70
2020,05,09,06,05,13.70
2020,05,09,06,06,13.70
2020,05,09,06,07,13.70
2020,05,09,06,08,13.70
2020,05,09,06,09,13.70
2020,05,09,06,10,13.70
2020,05,09,06,11,13.70
2020,05,09,06,12,13.70
2020,05,09,06,13,13.70
2020,05,09,06,14,13.70
2020,05,09,06,15,13.70
2020,05,09,06,16,13.80
2020,05,09,06,17,13.80
2020,05,09,06,18,13.90
2020,05,09,06,19,13.90
2020,05,09,06,20,13.90
2020,05,09,06,21,14.00
2020,05,09,06,22,14.00
2020,05,09,06,23,14.10
2020,05,09,06,24,14.10
2020,05,09,06,25,14.20
2020,05,09,06,26,14.20
2020,05,09,06,27,14.30
2020,05,09,06,28,14.30
2020,05,09,06,29,14.40
2020,05,09,06,30,14.40
2020,05,09,06,31,14.50
2020,05,09,06,32,14.50
2020,05,09,06,33,14.60
2020,05,09,06,34,14.70
2020,05,09,06,35,14.70
2020,05,09,06,36,14.80
2020,05,09,06,37,14.90
2020,05,09,06,38,14.90
2020,05,09,06,39,15.00
2020,05,09,06,40,15.00
2020,05,09,06,41,15.10
2020,05,09,06,42,15.10
2020,05,09,06,43,15.20
2020,05,09,06,44,15.20
2020,05,09,06,45,15.30
2020,05,09,06,46,15.30
2020,05,09,06,47,15.40
2020,05,09,06,48,15.40
2020,05,09,06,49,15.50
2020,05,09,06,50,15.60
2020,05,09,06,51,15.60
2020,05,09,06,52,15.70
2020,05,09,06,53,15.80
2020,05,09,06,54,15.80
2020,05,09,06,55,15.90
2020,05,09,06,56,15.90
2020,05,09,06,57,15.90
2020,05,09,06,58,16.00
2020,05,09,06,59,16.10
2020,05,09,07,00,16.10
2020,05,09,07,01,16.10
2020,05,09,07,02,16.20
2020,05,09,07,03,16.20
2020,05,09,07,04,16.30
2020,05,09,07,05,16.30
2020,05,09,07,06,16.40
2020,05,09,07,07,16.50
2020,05,09,07,08,16.50
2020,05,09,07,09,16.60
2020,05,09,07,10,16.70
2020,05,09,07,11,16.70
2020,05,09,07,12,16.70
2020,05,09,07,13,16.80
2020,05,09,07,14,16.80
2020,05,09,07,15,16.80
2020,05,09,07,16,16.90
2020,05,09,07,17,16.90
2020,05,09,07,18,16.90
2020,05,09,07,19,16.90
2020,05,09,07,20,17.00
2020,05,09,07,21,17.00
2020,05,09,07,22,17.10
2020,05,09,07,23,17.10
2020,05,09,07,24,17.20
2020,05,09,07,25,17.20
2020,05,09,07,26,17.20
2020,05,09,07,27,17.20
2020,05,09,07,28,17.20
2020,05,09,07,29,17.30
2020,05,09,07,30,17.30
2020,05,09,07,31,17.30
2020,05,09,07,32,17.30
2020,05,09,07,33,17.40
2020,05,09,07,34,17.40
2020,05,09,07,35,17.40
2020,05,09,07,36,17.40
2020,05,09,07,37,17.40
2020,05,09,07,38,17.50
2020,05,09,07,39,17.60
2020,05,09,07,40,17.60
2020,05,09,07,41,17.70
2020,05,09,07,42,17.70
2020,05,09,07,43,17.70
2020,05,09,07,44,17.80
2020,05,09,07,45,17.80
2020,05,09,07,46,17.80
2020,05,09,07,47,17.90
2020,05,09,07,48,17.90
2020,05,09,07,49,17.90
2020,05,09,07,50,18.00
2020,05,09,07,51,18.00
2020,05,09,07,52,18.10
2020,05,09,07,53,18.10
2020,05,09,07,54,18.10
2020,05,09,07,55,18.20
2020,05,09,07,56,18.20
2020,05,09,07,57,18.20
2020,05,09,07,58,18.20
2020,05,09,07,59,18.30
2020,05,09,08,00,18.20
2020,05,09,08,01,18.30
2020,05,09,08,02,18.30
2020,05,09,08,03,18.30
2020,05,09,08,04,18.30
2020,05,09,08,05,18.30
2020,05,09,08,06,18.40
2020,05,09,08,07,18.40
2020,05,09,08,08,18.40
2020,05,09,08,09,18.50
2020,05,09,08,10,18.50
2020,05,09,08,11,18.50
2020,05,09,08,12,18.60
2020,05,09,08,13,18.60
2020,05,09,08,14,18.60
2020,05,09,08,15,18.70
2020,05,09,08,16,18.70
2020,05,09,08,17,18.70
2020,05,09,08,18,18.80
2020,05,09,08,19,18.80
2020,05,09,08,20,18.80
2020,05,09,08,21,18.80
2020,05,09,08,22,18.80
2020,05,09,08,23,18.80
2020,05,09,08,24,18.90
2020,05,09,08,25,18.90
2020,05,09,08,26,18.90
2020,05,09,08,27,19.00
2020,05,09,08,28,19.00
2020,05,09,08,29,19.00
2020,05,09,08,30,19.00
2020,05,09,08,31,19.00
2020,05,09,08,32,18.90
2020,05,09,08,33,18.90
2020,05,09,08,34,18.90
2020,05,09,08,35,18.90
2020,05,09,08,36,18.90
2020,05,09,08,37,18.90
2020,05,09,08,38,18.90
2020,05,09,08,39,19.00
2020,05,09,08,40,19.00
2020,05,09,08,41,18.90
2020,05,09,08,42,18.90
2020,05,09,08,43,19.00
2020,05,09,08,44,19.00
2020,05,09,08,45,19.00
2020,05,09,08,46,19.00
2020,05,09,08,47,19.10
2020,05,09,08,48,19.10
2020,05,09,08,49,19.10
2020,05,09,08,50,19.20
2020,05,09,08,51,19.20
2020,05,09,08,52,19.20
2020,05,09,08,53,19.30
2020,05,09,08,54,19.30
2020,05,09,08,55,19.40
2020,05,09,08,56,19.40
2020,05,09,08,57,19.40
2020,05,09,08,58,19.50
2020,05,09,08,59,19.50
2020,05,09,09,00,19.50
2020,05,09,09,01,19.50
2020,05,09,09,02,19.50
2020,05,09,09,03,19.50
2020,05,09,09,04,19.60
2020,05,09,09,05,19.60
2020,05,09,09,06,19.60
2020,05,09,09,07,19.60
2020,05,09,09,08,19.60
2020,05,09,09,09,19.60
2020,05,09,09,10,19.60
2020,05,09,09,11,19.70
2020,05,09,09,12,19.70
2020,05,09,09,13,19.80
2020,05,09,09,14,19.80
2020,05,09,09,15,19.80
2020,05,09,09,16,19.90
2020,05,09,09,17,19.90
2020,05,09,09,18,19.90
2020,05,09,09,19,19.90
2020,05,09,09,20,20.00
2020,05,09,09,21,20.00
2020,05,09,09,22,20.10
2020,05,09,09,23,20.10
2020,05,09,09,24,20.20
2020,05,09,09,25,20.20
2020,05,09,09,26,20.20
2020,05,09,09,27,20.20
2020,05,09,09,28,20.20
2020,05,09,09,29,20.20
2020,05,09,09,30,20.20
2020,05,09,09,31,20.20
2020,05,09,09,32,20.20
2020,05,09,09,33,20.20
2020,05,09,09,34,20.20
2020,05,09,09,35,20.20
2020,05,09,09,36,20.20
2020,05,09,09,37,20.20
2020,05,09,09,38,20.20
2020,05,09,09,39,20.30
2020,05,09,09,40,20.40
2020,05,09,09,41,20.40
2020,05,09,09,42,20.50
2020,05,09,09,43,20.50
2020,05,09,09,44,20.40
2020,05,09,09,45,20.40
2020,05,09,09,46,20.40
2020,05,09,09,47,20.40
2020,05,09,09,48,20.40
2020,05,09,09,49,20.40
2020,05,09,09,50,20.40
2020,05,09,09,51,20.50
2020,05,09,09,52,20.50
2020,05,09,09,53,20.60
2020,05,09,09,54,20.60
2020,05,09,09,55,20.60
2020,05,09,09,56,20.60
2020,05,09,09,57,20.70
2020,05,09,09,58,20.70
2020,05,09,09,59,20.70
2020,05,09,10,00,20.70
2020,05,09,10,01,20.70
2020,05,09,10,02,20.70
2020,05,09,10,03,20.70
2020,05,09,10,04,20.70
2020,05,09,10,05,20.70
2020,05,09,10,06,20.70
2020,05,09,10,07,20.60
2020,05,09,10,08,20.60
2020,05,09,10,09,20.60
2020,05,09,10,10,20.60
2020,05,09,10,11,20.60
2020,05,09,10,12,20.60
2020,05,09,10,13,20.60
2020,05,09,10,14,20.60
2020,05,09,10,15,20.70
2020,05,09,10,16,20.80
2020,05,09,10,17,20.90
2020,05,09,10,18,21.00
2020,05,09,10,19,21.00
2020,05,09,10,20,21.10
2020,05,09,10,21,21.20
2020,05,09,10,22,21.30
2020,05,09,10,23,21.20
2020,05,09,10,24,21.10
2020,05,09,10,25,20.90
2020,05,09,10,26,20.80
2020,05,09,10,27,20.70
2020,05,09,10,28,20.70
2020,05,09,10,29,20.70
2020,05,09,10,30,20.70
2020,05,09,10,31,20.70
2020,05,09,10,32,20.70
2020,05,09,10,33,20.70
2020,05,09,10,34,20.80
2020,05,09,10,35,20.80
2020,05,09,10,36,20.80
2020,05,09,10,37,20.80
2020,05,09,10,38,20.90
2020,05,09,10,39,20.90
2020,05,09,10,40,21.00
2020,05,09,10,41,21.00
2020,05,09,10,42,21.10
2020,05,09,10,43,21.10
2020,05,09,10,44,21.10
2020,05,09,10,45,21.20
2020,05,09,10,46,21.20
2020,05,09,10,47,21.20
2020,05,09,10,48,21.10
2020,05,09,10,49,21.10
2020,05,09,10,50,21.10
2020,05,09,10,51,21.10
2020,05,09,10,52,21.10
2020,05,09,10,53,21.10
2020,05,09,10,54,21.20
2020,05,09,10,55,21.20
2020,05,09,10,56,21.30
2020,05,09,10,57,21.30
2020,05,09,10,58,21.30
2020,05,09,10,59,21.30
2020,05,09,11,00,21.30
2020,05,09,11,01,21.30
2020,05,09,11,02,21.30
2020,05,09,11,03,21.20
2020,05,09,11,04,21.10
2020,05,09,11,05,21.00
2020,05,09,11,06,21.00
2020,05,09,11,07,20.90
2020,05,09,11,08,20.90
2020,05,09,11,09,20.90
2020,05,09,11,10,20.90
2020,05,09,11,11,20.90
2020,05,09,11,12,20.90
2020,05,09,11,13,20.90
2020,05,09,11,14,20.90
2020,05,09,11,15,20.90
2020,05,09,11,16,21.00
2020,05,09,11,17,21.00
2020,05,09,11,18,21.10
2020,05,09,11,19,21.10
2020,05,09,11,20,21.10
2020,05,09,11,21,21.10
2020,05,09,11,22,21.10
2020,05,09,11,23,21.10
2020,05,09,11,24,21.10
2020,05,09,11,25,21.20
2020,05,09,11,26,21.30
2020,05,09,11,27,21.40
2020,05,09,11,28,21.50
2020,05,09,11,29,21.60
2020,05,09,11,30,21.60
2020,05,09,11,31,21.70
2020,05,09,11,32,21.70
2020,05,09,11,33,21.80
2020,05,09,11,34,21.90
2020,05,09,11,35,21.90
2020,05,09,11,36,22.00
2020,05,09,11,37,22.00
2020,05,09,11,38,22.00
2020,05,09,11,39,22.00
2020,05,09,11,40,22.00
2020,05,09,11,41,21.90
2020,05,09,11,42,21.90
2020,05,09,11,43,21.90
2020,05,09,11,44,21.90
2020,05,09,11,45,21.90
2020,05,09,11,46,21.90
2020,05,09,11,47,21.90
2020,05,09,11,48,21.90
2020,05,09,11,49,21.90
2020,05,09,11,50,21.90
2020,05,09,11,51,22.00
2020,05,09,11,52,22.00
2020,05,09,11,53,22.10
2020,05,09,11,54,22.20
2020,05,09,11,55,22.40
2020,05,09,11,56,22.50
2020,05,09,11,57,22.50
2020,05,09,11,58,22.60
2020,05,09,11,59,22.60
2020,05,09,12,00,22.70
2020,05,09,12,01,22.70
2020,05,09,12,02,22.70
2020,05,09,12,03,22.70
2020,05,09,12,04,22.80
2020,05,09,12,05,22.70
2020,05,09,12,06,22.70
2020,05,09,12,07,22.70
2020,05,09,12,08,22.60
2020,05,09,12,09,22.60
2020,05,09,12,10,22.50
2020,05,09,12,11,22.50
2020,05,09,12,12,22.40
2020,05,09,12,13,22.50
2020,05,09,12,14,22.50
2020,05,09,12,15,22.60
2020,05,09,12,16,22.60
2020,05,09,12,17,22.50
2020,05,09,12,18,22.50
2020,05,09,12,19,22.40
2020,05,09,12,20,22.40
2020,05,09,12,21,22.40
2020,05,09,12,22,22.40
2020,05,09,12,23,22.40
2020,05,09,12,24,22.40
2020,05,09,12,25,22.40
2020,05,09,12,26,22.50
2020,05,09,12,27,22.50
2020,05,09,12,28,22.70
2020,05,09,12,29,22.80
2020,05,09,12,30,22.80
2020,05,09,12,31,22.90
2020,05,09,12,32,22.90
2020,05,09,12,33,23.00
2020,05,09,12,34,23.00
2020,05,09,12,35,22.90
2020,05,09,12,36,22.90
2020,05,09,12,37,22.80
2020,05,09,12,38,22.70
2020,05,09,12,39,22.60
2020,05,09,12,40,22.60
2020,05,09,12,41,22.50
2020,05,09,12,42,22.50
2020,05,09,12,43,22.60
2020,05,09,12,44,22.60
2020,05,09,12,45,22.60
2020,05,09,12,46,22.70
2020,05,09,12,47,22.80
2020,05,09,12,48,22.80
2020,05,09,12,49,22.90
2020,05,09,12,50,23.00
2020,05,09,12,51,23.10
2020,05,09,12,52,23.20
2020,05,09,12,53,23.30
2020,05,09,12,54,23.30
2020,05,09,12,55,23.30
2020,05,09,12,56,23.40
2020,05,09,12,57,23.50
2020,05,09,12,58,23.50
2020,05,09,12,59,23.60
2020,05,09,13,00,23.60
2020,05,09,13,01,23.60
2020,05,09,13,02,23.70
2020,05,09,13,03,23.70
2020,05,09,13,04,23.80
2020,05,09,13,05,23.80
2020,05,09,13,06,23.90
2020,05,09,13,07,23.90
2020,05,09,13,08,23.90
2020,05,09,13,09,23.90
2020,05,09,13,10,23.90
2020,05,09,13,11,23.90
2020,05,09,13,12,23.90
2020,05,09,13,13,23.80
2020,05,09,13,14,23.80
2020,05,09,13,15,23.80
2020,05,09,13,16,23.80
2020,05,09,13,17,23.80
2020,05,09,13,18,23.90
2020,05,09,13,19,23.90
2020,05,09,13,20,24.10
2020,05,09,13,21,24.20
2020,05,09,13,22,24.20
2020,05,09,13,23,24.20
2020,05,09,13,24,24.20
2020,05,09,13,25,24.20
2020,05,09,13,26,24.20
2020,05,09,13,27,24.30
2020,05,09,13,28,24.30
2020,05,09,13,29,24.30
2020,05,09,13,30,24.30
2020,05,09,13,31,24.30
2020,05,09,13,32,24.20
2020,05,09,13,33,24.20
2020,05,09,13,34,24.20
2020,05,09,13,35,24.20
2020,05,09,13,36,24.20
2020,05,09,13,37,24.30
2020,05,09,13,38,24.40
2020,05,09,13,39,24.50
2020,05,09,13,40,24.50
2020,05,09,13,41,24.40
2020,05,09,13,42,24.40
2020,05,09,13,43,24.40
2020,05,09,13,44,24.40
2020,05,09,13,45,24.50
2020,05,09,13,46,24.50
2020,05,09,13,47,24.60
2020,05,09,13,48,24.60
2020,05,09,13,49,24.60
2020,05,09,13,50,24.60
2020,05,09,13,51,24.60
2020,05,09,13,52,24.70
2020,05,09,13,53,24.70
2020,05,09,13,54,24.70
2020,05,09,13,55,24.70
2020,05,09,13,56,24.80
2020,05,09,13,57,24.80
2020,05,09,13,58,24.80
2020,05,09,13,59,24.80
2020,05,09,14,00,24.90
2020,05,09,14,01,24.90
2020,05,09,14,02,24.90
2020,05,09,14,03,25.00
2020,05,09,14,04,25.00
2020,05,09,14,05,25.00
2020,05,09,14,06,25.00
2020,05,09,14,07,25.00
2020,05,09,14,08,25.00
2020,05,09,14,09,25.10
2020,05,09,14,10,25.10
2020,05,09,14,11,25.10
2020,05,09,14,12,25.20
2020,05,09,14,13,25.20
2020,05,09,14,14,25.20
2020,05,09,14,15,25.10
2020,05,09,14,16,25.10
2020,05,09,14,17,25.10
2020,05,09,14,18,25.10
2020,05,09,14,19,25.10
2020,05,09,14,20,25.10
2020,05,09,14,21,25.10
2020,05,09,14,22,25.10
2020,05,09,14,23,25.10
2020,05,09,14,24,25.10
2020,05,09,14,25,25.10
2020,05,09,14,26,25.10
2020,05,09,14,27,25.10
2020,05,09,14,28,25.20
2020,05,09,14,29,25.30
2020,05,09,14,30,25.40
2020,05,09,14,31,25.50
2020,05,09,14,32,25.50
2020,05,09,14,33,25.60
2020,05,09,14,34,25.70
2020,05,09,14,35,25.70
2020,05,09,14,36,25.80
2020,05,09,14,37,25.80
2020,05,09,14,38,25.80
2020,05,09,14,39,25.90
2020,05,09,14,40,26.00
2020,05,09,14,41,26.10
2020,05,09,14,42,26.20
2020,05,09,14,43,26.20
2020,05,09,14,44,26.20
2020,05,09,14,45,26.10
2020,05,09,14,46,26.10
2020,05,09,14,47,26.00
2020,05,09,14,48,26.10
2020,05,09,14,49,26.10
2020,05,09,14,50,26.10
2020,05,09,14,51,26.10
2020,05,09,14,52,26.10
2020,05,09,14,53,26.10
2020,05,09,14,54,26.10
2020,05,09,14,55,26.10
2020,05,09,14,56,26.10
2020,05,09,14,57,26.10
2020,05,09,14,58,26.10
2020,05,09,14,59,26.10
2020,05,09,15,00,26.10
2020,05,09,15,01,26.20
2020,05,09,15,02,26.20
2020,05,09,15,03,26.20
2020,05,09,15,04,26.30
2020,05,09,15,05,26.30
2020,05,09,15,06,26.30
2020,05,09,15,07,26.40
2020,05,09,15,08,26.30
2020,05,09,15,09,26.30
2020,05,09,15,10,26.30
2020,05,09,15,11,26.30
2020,05,09,15,12,26.30
2020,05,09,15,13,26.30
2020,05,09,15,14,26.20
2020,05,09,15,15,26.10
2020,05,09,15,16,26.10
2020,05,09,15,17,26.10
2020,05,09,15,18,26.10
2020,05,09,15,19,26.10
2020,05,09,15,20,26.20
2020,05,09,15,21,26.20
2020,05,09,15,22,26.20
2020,05,09,15,23,26.20
2020,05,09,15,24,26.10
2020,05,09,15,25,26.10
2020,05,09,15,26,26.10
2020,05,09,15,27,26.10
2020,05,09,15,28,26.10
2020,05,09,15,29,26.00
2020,05,09,15,30,26.00
2020,05,09,15,31,26.00
2020,05,09,15,32,26.00
2020,05,09,15,33,26.00
2020,05,09,15,34,25.90
2020,05,09,15,35,25.90
2020,05,09,15,36,25.90
2020,05,09,15,37,25.90
2020,05,09,15,38,25.90
2020,05,09,15,39,25.90
2020,05,09,15,40,25.90
2020,05,09,15,41,25.90
2020,05,09,15,42,25.90
2020,05,09,15,43,25.90
2020,05,09,15,44,25.90
2020,05,09,15,45,26.00
2020,05,09,15,46,26.00
2020,05,09,15,47,26.10
2020,05,09,15,48,26.10
2020,05,09,15,49,26.10
2020,05,09,15,50,26.10
2020,05,09,15,51,26.10
2020,05,09,15,52,26.20
2020,05,09,15,53,26.20
2020,05,09,15,54,26.20
2020,05,09,15,55,26.10
2020,05,09,15,56,26.10
2020,05,09,15,57,26.10
2020,05,09,15,58,26.10
2020,05,09,15,59,26.10
2020,05,09,16,00,26.10
2020,05,09,16,01,26.10
2020,05,09,16,02,26.10
2020,05,09,16,03,26.10
2020,05,09,16,04,26.10
2020,05,09,16,05,26.10
2020,05,09,16,06,26.20
2020,05,09,16,07,26.20
2020,05,09,16,08,26.20
2020,05,09,16,09,26.20
2020,05,09,16,10,26.20
2020,05,09,16,11,26.20
2020,05,09,16,12,26.20
2020,05,09,16,13,26.20
2020,05,09,16,14,26.20
2020,05,09,16,15,26.20
2020,05,09,16,16,26.20
2020,05,09,16,17,26.20
2020,05,09,16,18,26.20
2020,05,09,16,19,26.20
2020,05,09,16,20,26.20
2020,05,09,16,21,26.20
2020,05,09,16,22,26.30
2020,05,09,16,23,26.30
2020,05,09,16,24,26.30
2020,05,09,16,25,26.40
2020,05,09,16,26,26.40
2020,05,09,16,27,26.40
2020,05,09,16,28,26.50
2020,05,09,16,29,26.50
2020,05,09,16,30,26.50
2020,05,09,16,31,26.50
2020,05,09,16,32,26.50
2020,05,09,16,33,26.50
2020,05,09,16,34,26.50
2020,05,09,16,35,26.60
2020,05,09,16,36,26.70
2020,05,09,16,37,26.70
2020,05,09,16,38,26.80
2020,05,09,16,39,26.90
2020,05,09,16,40,26.90
2020,05,09,16,41,26.80
2020,05,09,16,42,26.80
2020,05,09,16,43,26.80
2020,05,09,16,44,26.70
2020,05,09,16,45,26.70
2020,05,09,16,46,26.70
2020,05,09,16,47,26.70
2020,05,09,16,48,26.70
2020,05,09,16,49,26.80
2020,05,09,16,50,26.90
2020,05,09,16,51,26.90
2020,05,09,16,52,27.00
2020,05,09,16,53,27.00
2020,05,09,16,54,27.00
2020,05,09,16,55,27.10
2020,05,09,16,56,27.10
2020,05,09,16,57,27.20
2020,05,09,16,58,27.20
2020,05,09,16,59,27.20
2020,05,09,17,00,27.20
2020,05,09,17,01,27.20
2020,05,09,17,02,27.10
2020,05,09,17,03,27.00
2020,05,09,17,04,27.00
2020,05,09,17,05,26.90
2020,05,09,17,06,26.90
2020,05,09,17,07,26.90
2020,05,09,17,08,26.90
2020,05,09,17,09,27.00
2020,05,09,17,10,26.90
2020,05,09,17,11,26.90
2020,05,09,17,12,26.90
2020,05,09,17,13,26.90
2020,05,09,17,14,26.90
2020,05,09,17,15,26.90
2020,05,09,17,16,26.90
2020,05,09,17,17,27.00
2020,05,09,17,18,27.00
2020,05,09,17,19,27.00